TimeICT,TemperatureF,Dew PointF,Humidity,Sea Level PressureIn,VisibilityMPH,Wind Direction,Wind SpeedMPH,Gust SpeedMPH,PrecipitationIn,Events,Conditions,WindDirDegrees,DateUTC
12:00 AM,75.2,73.4,94,29.89,6.2,Calm,Calm,-,N/A,,Mostly Cloudy,0,2013-09-07 17:00:00
12:30 AM,75.2,73.4,94,29.86,6.2,Calm,Calm,-,N/A,,Mostly Cloudy,0,2013-09-07 17:30:00
1:00 AM,75,73,92,29.86,6,Calm,Calm,,,,Partly Cloudy,,2013-09-07 18:00:00
1:30 AM,75.2,73.4,94,29.83,6.2,Calm,Calm,-,N/A,,Mostly Cloudy,0,2013-09-07 18:30:00
2:00 AM,75.2,73.4,94,29.83,6.2,Calm,Calm,-,N/A,,Mostly Cloudy,0,2013-09-07 19:00:00
3:00 AM,73.4,71.6,94,29.83,6.2,Calm,Calm,-,N/A,,Mostly Cloudy,0,2013-09-07 20:00:00
3:30 AM,73.4,71.6,94,29.80,6.2,Calm,Calm,-,N/A,,Mostly Cloudy,0,2013-09-07 20:30:00
4:00 AM,73.4,71.6,94,29.80,6.2,Calm,Calm,-,N/A,,Mostly Cloudy,0,2013-09-07 21:00:00
4:30 AM,73.4,71.6,94,29.80,5.0,Calm,Calm,-,N/A,,Mostly Cloudy,0,2013-09-07 21:30:00
5:30 AM,73.4,71.6,94,29.83,5.0,Calm,Calm,-,N/A,,Mostly Cloudy,0,2013-09-07 22:30:00
6:00 AM,73.4,71.6,94,29.86,5.0,Calm,Calm,-,N/A,,Mostly Cloudy,0,2013-09-07 23:00:00
6:30 AM,73.4,71.6,94,29.86,5.0,Calm,Calm,-,N/A,,Mostly Cloudy,0,2013-09-07 23:30:00
7:00 AM,75.2,73.4,94,29.86,5.0,Calm,Calm,-,N/A,,Mostly Cloudy,0,2013-09-08 00:00:00
7:30 AM,75.2,73.4,94,29.86,5.0,Calm,Calm,-,N/A,,Mostly Cloudy,0,2013-09-08 00:30:00
8:00 AM,77.0,75.2,94,29.86,5.0,South,3.5,-,N/A,,Mostly Cloudy,180,2013-09-08 01:00:00
8:30 AM,80.6,75.2,84,29.89,5.6,South,4.6,-,N/A,,Mostly Cloudy,190,2013-09-08 01:30:00
9:00 AM,82.4,75.2,79,29.89,6.2,SSW,9.2,-,N/A,,Mostly Cloudy,210,2013-09-08 02:00:00
9:30 AM,84.2,73.4,70,29.89,6.2,SW,8.1,-,N/A,,Mostly Cloudy,230,2013-09-08 02:30:00
10:00 AM,84.2,73.4,70,29.89,6.2,SW,6.9,-,N/A,,Mostly Cloudy,230,2013-09-08 03:00:00
10:30 AM,86.0,73.4,66,29.89,6.2,WSW,8.1,-,N/A,,Mostly Cloudy,240,2013-09-08 03:30:00
11:00 AM,86.0,73.4,66,29.89,6.2,WSW,10.4,-,N/A,,Mostly Cloudy,250,2013-09-08 04:00:00
11:30 AM,87.8,71.6,58,29.86,6.2,SW,9.2,-,N/A,,Mostly Cloudy,220,2013-09-08 04:30:00
12:00 PM,89.6,73.4,59,29.86,6.2,SSW,9.2,-,N/A,,Mostly Cloudy,210,2013-09-08 05:00:00
12:30 PM,89.6,69.8,52,29.83,6.2,SW,9.2,-,N/A,,Mostly Cloudy,220,2013-09-08 05:30:00
1:00 PM,88,71,47,29.84,6,West,10.4,,,,Partly Cloudy,260,2013-09-08 06:00:00
1:00 PM,87.8,69.8,55,29.83,6.2,West,10.4,-,N/A,,Mostly Cloudy,260,2013-09-08 06:00:00
1:30 PM,89.6,73.4,59,29.80,6.2,WNW,12.7,-,N/A,,Mostly Cloudy,290,2013-09-08 06:30:00
2:00 PM,87.8,69.8,55,29.80,6.2,SW,4.6,-,N/A,,Mostly Cloudy,220,2013-09-08 07:00:00
2:30 PM,87.8,71.6,58,29.77,6.2,WSW,6.9,-,N/A,,Mostly Cloudy,240,2013-09-08 07:30:00
3:00 PM,87.8,71.6,58,29.77,6.2,WSW,6.9,-,N/A,,Mostly Cloudy,240,2013-09-08 08:00:00
3:30 PM,87.8,73.4,62,29.77,6.2,WSW,6.9,-,N/A,,Mostly Cloudy,250,2013-09-08 08:30:00
4:00 PM,80.6,75.2,84,29.77,5.6,NNE,12.7,-,N/A,Rain,Light Rain,30,2013-09-08 09:00:00
4:30 PM,77.0,73.4,89,29.80,5.0,NE,5.8,-,N/A,Rain,Rain,40,2013-09-08 09:30:00
5:00 PM,77.0,73.4,89,29.80,5.0,East,6.9,-,N/A,Rain,Rain,80,2013-09-08 10:00:00
5:30 PM,77.0,75.2,94,29.80,5.0,ENE,5.8,-,N/A,Rain,Light Rain,60,2013-09-08 10:30:00
6:00 PM,77.0,75.2,94,29.80,5.0,NE,3.5,-,N/A,Rain,Light Rain,40,2013-09-08 11:00:00
6:30 PM,77.0,75.2,94,29.80,5.0,NNE,2.3,-,N/A,,Mostly Cloudy,30,2013-09-08 11:30:00
7:00 PM,77,74,87,29.84,5,NNE,2.3,,,Rain,Light Rain,30,2013-09-08 12:00:00
7:00 PM,77.0,73.4,89,29.83,5.0,NNE,2.3,-,N/A,,Mostly Cloudy,30,2013-09-08 12:00:00
7:30 PM,77.0,73.4,89,29.86,5.0,Calm,Calm,-,N/A,,Mostly Cloudy,0,2013-09-08 12:30:00
8:00 PM,78.8,73.4,83,29.86,5.0,NNW,3.5,-,N/A,Rain,Light Rain,330,2013-09-08 13:00:00
8:30 PM,77.0,73.4,89,29.89,5.0,Calm,Calm,-,N/A,Rain,Light Rain,0,2013-09-08 13:30:00
9:00 PM,77.0,75.2,94,29.89,5.6,Calm,Calm,-,N/A,Rain,Light Rain,0,2013-09-08 14:00:00
9:30 PM,77.0,75.2,94,29.89,3.7,Calm,Calm,-,N/A,Rain,Light Rain,0,2013-09-08 14:30:00
10:00 PM,77.0,75.2,94,29.92,3.7,WNW,3.5,-,N/A,Rain,Light Rain,300,2013-09-08 15:00:00
10:30 PM,77.0,75.2,94,29.92,3.1,NNW,5.8,-,N/A,Rain,Light Rain,330,2013-09-08 15:30:00
11:00 PM,75.2,73.4,94,29.92,4.3,West,4.6,-,N/A,Rain,Light Rain,270,2013-09-08 16:00:00
11:30 PM,77.0,75.2,94,29.92,4.3,Calm,Calm,-,N/A,Rain,Light Rain,0,2013-09-08 16:30:00